Skip Page Navigation
NASA JPL Caltech
NASA Logo - Jet Propulsion Laboratory + View the NASA Portal
+ Center for Near-Earth Object Studies
JPL Home Earth Solar System Stars & Galaxies Technology
JPL Solar System Dynamics
BODIES ORBITS EPHEMERIDES TOOLS PHYSICAL DATA DISCOVERY FAQ SITE MAP
IMPORTANT: The SSD Announcement email list is now available. Major changes are coming in the near future, including possible hostname and/or URL changes. To be notified of such changes, subscribe to this email list.

Please visit this page for more details.


JPL Small-Body Database Browser
Search: [ help ]  
245780 (2006 GU41)
Classification: Main-belt Asteroid          SPK-ID: 2245780
Ephemeris | Orbit Diagram | Orbital Elements | Mission Design | Physical Parameters | Discovery Circumstances | Close-Approach Data ]

[ show orbit diagram ]
Orbital Elements at Epoch 2459000.5 (2020-May-31.0) TDB
Reference: JPL 16 (heliocentric ecliptic J2000)
 Element Value Uncertainty (1-sigma)   Units 
e .1419475629029108 3.5469e-08  
a 2.304844282416983 1.4068e-08 au
q 1.977677253657184 8.2944e-08 au
i 6.119549259664095 4.6192e-06 deg
node 97.96735384553965 4.0733e-05 deg
peri 153.6255612964299 4.4225e-05 deg
M 338.0393192069169 1.8734e-05 deg
tp 2459078.465794609145
(2020-Aug-16.96579461)
6.682e-05 TDB
period 1278.088157819434
3.50
1.1702e-05
3.204e-08
d
yr
n .2816707108954062 2.5789e-09 deg/d
Q 2.632011311176782 1.6065e-08 au
  Orbit Determination Parameters
   # obs. used (total)      328  
   data-arc span      6594 days (18.05 yr)  
   first obs. used      2002-01-11  
   last obs. used      2020-01-31  
   planetary ephem.      DE431  
   SB-pert. ephem.      SB431-N16  
   condition code      0  
   norm. resid. RMS      .58833  
   source      ORB  
   producer      Otto Matic  
   solution date      2020-Feb-25 09:46:19  

Additional Information
 Earth MOID = .965207 au 
 Jupiter MOID = 2.40781 au 
 T_jup = 3.568 
[ show covariance matrix ]

Ephemeris | Orbit Diagram | Orbital Elements | Mission Design | Physical Parameters | Discovery Circumstances | Close-Approach Data ]

Physical Parameter Table
Parameter Symbol Value Units Sigma Reference Notes
absolute magnitude H 16.9   n/a MPO418313  
diameter diameter 1.514 km 0.345 urn:nasa:pds:neowise_diameters_albedos::2.0[mainbelt] (http://adsabs.harvard.edu/abs/2011ApJ...741...68M)  
geometric albedo albedo 0.111   0.041 urn:nasa:pds:neowise_diameters_albedos::2.0[mainbelt] (http://adsabs.harvard.edu/abs/2011ApJ...741...68M)  

245780 (2006 GU41)          Discovered 2006-Apr-07 by LONEOS at Anderson Mesa
Reference: 20100726/Numbers.arcLast Updated: 2010-07-28

[ show close-approach data ]
Alternate Designations
 2006 GU41 = 2008 YQ157 
Ephemeris | Orbit Diagram | Orbital Elements | Mission Design | Physical Parameters | Discovery Circumstances | Close-Approach Data ]
ABOUT SSD CREDITS/AWARDS PRIVACY/COPYRIGHT GLOSSARY LINKS
FirstGov 2020-Mar-28 22:08 UT
(server date/time)  
NASA Home Page
Site Manager:   Ryan S. Park
Webmaster  Alan B. Chamberlin